Location: Arborea
(39.7744°N, 8.5819°E)
Time: 03:50:48
(UTC+00:00)

Cosmos 1953 - Pass Details

Date: 31 May 2022
Orbit: 533 x 555 km, 82.5° (Epoch: 04 July)

Event Time Altitude Azimuth Distance (km) Brightness Sun altitude
Rises 23:10:07 0° 356° (N) 2,713 7.1 -28.1°
Reaches altitude 10° 23:12:20 10° 0° (N) 1,812 5.9 -28.2°
Enters shadow 23:14:50 35° 17° (NNE) 881 3.8 -28.2°
